[[{"header":{"parameterUnit":"m.s-1","parameterCategory":2,"la1":30.2991,"la2":30.254,"lo1":-89.0895,"lo2":-89.0444,"dy":0.0017,"dx":0.0017,"nx":28,"ny":28,"refTime":"2025-04-28T21:00:00:Z","depth":"0","parameterNumber":2,"parameterNumberName":"U-component_of_CURRENTS"},"data":[0,0,0,0,0,0,0,0,0,0,0,0,0,0,0,0,0,0,0,0,0,0,0,0,0,0,0,0,0,0,0,0,0,0,0,0,0,0,0,0,0,0,0,0,0,0,0,0,0,0,0,0,0,0,0,0,0,0,0.1984,0.1985,0,0.205,0.2051,0.2052,0.2075,0.2075,0.2075,0.2075,0.2106,0.2107,0.2108,0,0,0,0,0,0,0,0,0,0,0,0,0,0.1899,0.19,0.1984,0.1985,0.1986,0.205,0.2051,0.2052,0.2075,0.2075,0.2075,0.2075,0.2106,0.2107,0.2108,0,0,0,0,0,0,0,0,0,0,0,0,0,0.1946,0.19,0.1984,0.2007,0.2009,0.205,0.2051,0.2052,0.2075,0.2075,0.2075,0.2075,0.2105,0.2107,0.2108,0.212,0,0,0.2112,0.2113,0,0,0,0,0,0,0,0,0.1943,0.1949,0.2002,0.2005,0.2008,0.2056,0.2032,0.2073,0.2075,0.2049,0.2075,0.2075,0.2087,0.209,0.2101,0.2121,0.2123,0.2112,0.2113,0.2114,0.2114,0,0,0,0,0,0,0,0.194,0.1946,0.2009,0.2004,0.2007,0.202,0.2027,0.204,0.2066,0.2051,0.2053,0.2063,0.2088,0.21,0.2102,0.2123,0.2112,0.2113,0.2114,0.2115,0.2186,0.2187,0,0,0,0,0,0,0.1934,0.1943,0.2007,0.2011,0.1976,0.2022,0.2029,0.204,0.2067,0.2072,0.2063,0.2064,0.2097,0.21,0.2103,0.2141,0.2114,0.2115,0.2116,0.2185,0.2187,0.2188,0,0,0,0,0,0,0.1932,0.1939,0.2005,0.198,0.1989,0.2024,0.2035,0.2041,0.2057,0.2077,0.208,0.2073,0.2097,0.2101,0.2126,0.2142,0.2116,0.2117,0.2184,0.2186,0.2187,0.2203,0,0,0,0,0,0,0.1929,0.1938,0.1942,0.1979,0.199,0.2034,0.2036,0.2042,0.2063,0.2065,0.2087,0.2089,0.2098,0.2124,0.2127,0.2143,0.2118,0.2183,0.2185,0.2187,0.2202,0.2205,0.2209,0,0,0,0,0,0.1926,0.1935,0.1942,0.195,0.1996,0.2035,0.2042,0.2065,0.2064,0.2076,0.2092,0.2089,0.2139,0.2126,0.2129,0.2146,0.2182,0.2184,0.2187,0.22,0.2205,0.2209,0,0,0,0,0,0,0.19,0.194,0.1948,0.1969,0.2001,0.204,0.2054,0.2066,0.2089,0.209,0.2101,0.2105,0.2136,0.2139,0.2124,0.2174,0.216,0.2164,0.2169,0.2174,0.2177,0.2176,0.2119,0,0,0,0,0,0.1896,0.1914,0.1954,0.1971,0.1987,0.2019,0.2036,0.2054,0.208,0.209,0.2105,0.2124,0.2149,0.2159,0.218,0.2202,0.2243,0.2217,0.2221,0.2224,0.2226,0.23,0.231,0.2196,0.2196,0.2196,0,0,0.189,0.1915,0.1924,0.1966,0.1991,0.2023,0.2029,0.2061,0.2086,0.2089,0.2121,0.2138,0.216,0.2191,0.2205,0.2194,0.2284,0.2227,0.2229,0.223,0.2303,0.2315,0.2325,0.2197,0.2197,0.2197,0,0,0.1894,0.1911,0.193,0.1959,0.2001,0.2025,0.2034,0.2075,0.2092,0.2126,0.2139,0.2164,0.2195,0.2217,0.2232,0.2267,0.2304,0.2274,0.2287,0.2358,0.2369,0.2378,0.2473,0.249,0.2272,0.2272,0.2272,0,0.1883,0.1916,0.1941,0.1971,0.1998,0.2026,0.2057,0.2082,0.2125,0.2145,0.2137,0.2202,0.221,0.226,0.2269,0.2274,0.2332,0.2266,0.2364,0.2373,0.2383,0.2477,0.2496,0.2273,0.2273,0.2273,0.2273,0,0.1906,0.1934,0.195,0.1997,0.2026,0.2059,0.2099,0.2125,0.2143,0.2171,0.2221,0.2239,0.228,0.2284,0.2283,0.2351,0.238,0.2363,0.2352,0.2395,0.2493,0.2512,0.2275,0.2274,0.2274,0.2274,0,0,0.1879,0.1951,0.1957,0.1985,0.2044,0.2072,0.2115,0.2168,0.2207,0.2232,0.229,0.231,0.2324,0.2341,0.235,0.2393,0.2505,0.2402,0.2406,0.2496,0.2698,0.2706,0.2729,0.2512,0.2515,0.2517,0.275,0,0.1891,0.1946,0.1983,0.2036,0.2068,0.2112,0.2154,0.2202,0.2245,0.2308,0.233,0.2389,0.2347,0.2379,0.2414,0.2492,0.2554,0.2445,0.2643,0.2649,0.2649,0.2749,0.2668,0.2867,0.277,0.2773,0.2775,0,0.1901,0.1939,0.199,0.2064,0.2083,0.2116,0.2195,0.2242,0.2328,0.2364,0.2417,0.2455,0.2529,0.2486,0.2632,0.2572,0.2635,0.2682,0.2692,0.2703,0.2693,0.2802,0.2906,0.2837,0.2806,0.2803,0.2801,0,0.1868,0.1944,0.1983,0.2008,0.2093,0.2122,0.217,0.2253,0.2309,0.2416,0.2481,0.2558,0.2634,0.2704,0.2791,0.2733,0.2971,0.2906,0.2978,0.2981,0.295,0.2945,0.3004,0.3019,0.3018,0.3018,0.3017,0,0.1868,0.1896,0.1969,0.199,0.204,0.2108,0.2177,0.2237,0.2347,0.2432,0.251,0.2604,0.2694,0.2829,0.2868,0.3011,0.3045,0.3016,0.3048,0.2956,0.2949,0.2916,0.287,0.3027,0.3025,0.3023,0.3021,0,0.1824,0.1875,0.1918,0.2,0.2025,0.2059,0.217,0.2226,0.2343,0.2466,0.2513,0.2687,0.2863,0.2968,0.3132,0.3139,0.3181,0.3289,0.319,0.3204,0.3147,0.3106,0.3088,0.2996,0.3402,0.3403,0.3405,0,0.1805,0.1824,0.1903,0.1927,0.1961,0.2026,0.2073,0.2195,0.2268,0.2509,0.2571,0.2801,0.2941,0.3213,0.3284,0.3417,0.3275,0.3408,0.325,0.3168,0.3147,0.2972,0.2881,0.3241,0.324,0.324,0.324,0,0.1763,0.179,0.1829,0.188,0.1924,0.1985,0.207,0.2127,0.2295,0.2429,0.2634,0.2784,0.3064,0.3188,0.3382,0.3423,0.3244,0.3409,0.3349,0.3057,0.2847,0.2766,0.308,0.324,0.324,0.324,0.324,0.324,0.1722,0.1735,0.1788,0.1837,0.1884,0.1943,0.1975,0.2086,0.2216,0.2406,0.2596,0.2795,0.3054,0.3308,0.3338,0.3346,0.3259,0.326,0.3237,0.3083,0.2912,0.3238,0.3401,0.3402,0.3402,0.3403,0.3404,0,0.1677,0.1704,0.1744,0.1802,0.1833,0.1882,0.1969,0.2002,0.2118,0.2325,0.2502,0.2794,0.2979,0.3136,0.3269,0.3195,0.3002,0.3121,0.2848,0.2779,0.3123,0.3031,0.3088,0.3088,0.3088,0.3089,0.3089,0.3089,0.1656,0.1677,0.171,0.1744,0.1778,0.18,0.1834,0.1894,0.2012,0.2203,0.2366,0.255,0.2892,0.3164,0.3159,0.3075,0.2804,0.2719,0.2672,0.292,0.2929,0.2937,0.2839,0.2855,0.2854,0.2196,0.2191,0.2188]},{"header":{"parameterUnit":"m.s-1","parameterCategory":2,"la1":30.2991,"la2":30.254,"lo1":-89.0895,"lo2":-89.0444,"dy":0.0017,"dx":0.0017,"nx":28,"ny":28,"refTime":"2025-04-28T21:00:00:Z","depth":"0","parameterNumber":3,"parameterNumberName":"V-component_of_CURRENTS"},"data":[0,0,0,0,0,0,0,0,0,0,0,0,0,0,0,0,0,0,0,0,0,0,0,0,0,0,0,0,0,0,0,0,0,0,0,0,0,0,0,0,0,0,0,0,0,0,0,0,0,0,0,0,0,0,0,0,0,0,0.0112,0.0112,0,0.006,0.0059,0.0058,0.0013,0.0012,0.0012,0.0011,-0.0089,-0.0091,-0.0093,0,0,0,0,0,0,0,0,0,0,0,0,0,0.0146,0.0146,0.0112,0.0112,0.0111,0.006,0.0059,0.0058,0.0013,0.0012,0.0012,0.0011,-0.0088,-0.009,-0.0093,0,0,0,0,0,0,0,0,0,0,0,0,0,0.0115,0.0146,0.0112,0.0083,0.008,0.006,0.0059,0.0058,0.0013,0.0012,0.0012,0.0011,-0.0087,-0.009,-0.0094,-0.0102,0,0,-0.0104,-0.0105,0,0,0,0,0,0,0,0,0.0117,0.0114,0.0088,0.0085,0.0082,0.0043,0.0034,0.0002,0.0013,0.0037,0.0011,0.0011,-0.0048,-0.0054,-0.0064,-0.0107,-0.0111,-0.0104,-0.0106,-0.0108,-0.0109,0,0,0,0,0,0,0,0.012,0.0116,0.009,0.0088,0.0084,0.0063,0.0058,0.0028,-0.0003,0.0035,0.0032,0.0028,-0.005,-0.006,-0.0067,-0.0113,-0.0104,-0.0107,-0.0109,-0.0111,-0.0179,-0.0178,0,0,0,0,0,0,0.013,0.0118,0.0092,0.0089,0.0099,0.0063,0.0058,0.0055,-0.0002,-0.001,0.0029,0.0026,-0.0054,-0.0063,-0.007,-0.0091,-0.0108,-0.0111,-0.0113,-0.0179,-0.0179,-0.0178,0,0,0,0,0,0,0.0131,0.0129,0.0094,0.0103,0.0097,0.0064,0.0061,0.0055,0.0044,-0.0006,-0.0016,0.0025,-0.0055,-0.0066,-0.0094,-0.0095,-0.0113,-0.0116,-0.0179,-0.0179,-0.0178,-0.0129,0,0,0,0,0,0,0.0132,0.0129,0.0132,0.0104,0.0097,0.0089,0.0062,0.0054,0.0043,0.0039,-0.0012,-0.0022,-0.0056,-0.0089,-0.0098,-0.01,-0.0118,-0.0179,-0.0179,-0.0179,-0.0131,-0.0127,-0.0123,0,0,0,0,0,0.0134,0.0145,0.0132,0.0129,0.0102,0.009,0.0085,0.0057,0.0044,0.0045,0.0009,-0.002,-0.0093,-0.0091,-0.0102,-0.0106,-0.018,-0.0179,-0.0179,-0.0132,-0.0128,-0.0123,0,0,0,0,0,0,0.0165,0.0141,0.0126,0.013,0.0113,0.0082,0.0083,0.0063,0.0037,0.0032,-0.0017,-0.0029,-0.0056,-0.0084,-0.0081,-0.0123,-0.0141,-0.0142,-0.0102,-0.0098,-0.0095,-0.0093,-0.0121,0,0,0,0,0,0.0173,0.0172,0.0146,0.015,0.0144,0.0114,0.0106,0.0088,0.0061,0.0049,0.0012,-0.0026,-0.0061,-0.0081,-0.0114,-0.0135,-0.0151,-0.0144,-0.014,-0.0137,-0.0142,-0.0167,-0.0166,-0.0176,-0.0177,-0.0177,0,0,0.0186,0.0173,0.0172,0.0156,0.014,0.0136,0.0108,0.0102,0.0093,0.0042,0.0021,-0.0014,-0.0063,-0.0089,-0.0103,-0.0113,-0.0136,-0.0136,-0.0133,-0.014,-0.0166,-0.0165,-0.0164,-0.0176,-0.0176,-0.0176,0,0,0.0214,0.0201,0.0208,0.0197,0.0179,0.0159,0.0161,0.0133,0.0115,0.0094,0.0052,0.0017,-0.0029,-0.0069,-0.0094,-0.0089,-0.0115,-0.0096,-0.008,-0.0103,-0.0103,-0.0103,-0.0094,-0.0094,-0.0095,-0.0095,-0.0095,0,0.0231,0.0233,0.021,0.0214,0.0208,0.0173,0.0179,0.0158,0.0122,0.0108,0.0095,0.002,-0.0022,-0.0064,-0.0067,-0.0083,-0.0087,-0.0092,-0.0098,-0.0099,-0.0099,-0.0091,-0.0091,-0.0093,-0.0093,-0.0093,-0.0094,0,0.0259,0.0261,0.0268,0.0256,0.0247,0.025,0.0218,0.0205,0.018,0.0152,0.0114,0.0058,0.0014,-0.0007,-0.0041,-0.0068,-0.0064,-0.0088,-0.0108,-0.0095,-0.0087,-0.0088,-0.0089,-0.009,-0.0091,-0.0092,0,0,0.0296,0.0289,0.0291,0.0294,0.027,0.0269,0.0254,0.0229,0.0229,0.0179,0.0177,0.0092,0.0064,0.0032,-0.0012,-0.0045,-0.005,-0.0066,-0.0069,-0.0054,-0.0074,-0.0074,-0.0076,-0.0072,-0.0073,-0.0073,-0.0055,0,0.0325,0.0347,0.0328,0.0343,0.0352,0.0316,0.0311,0.0282,0.0256,0.0249,0.0176,0.0159,0.0079,0.0074,0.0022,-0.002,-0.0055,-0.0051,-0.0093,-0.0094,-0.0093,-0.0079,-0.0091,-0.0078,-0.0057,-0.0057,-0.0057,0,0.0356,0.0367,0.039,0.0393,0.0394,0.0394,0.0384,0.0378,0.0345,0.0329,0.0282,0.0242,0.0186,0.0129,0.0033,0.0045,-0.0019,-0.0063,-0.0064,-0.0088,-0.0098,-0.0094,-0.0081,-0.024,-0.0059,-0.0059,-0.0059,0,0.0395,0.0408,0.0429,0.0429,0.0426,0.0428,0.0428,0.0402,0.0421,0.0395,0.0425,0.0325,0.0331,0.0212,0.0109,0.0078,0.0027,-0.0023,-0.0089,-0.0088,-0.0122,-0.0123,-0.0269,-0.0104,-0.0104,-0.0104,-0.0104,0,0.0432,0.0449,0.0453,0.0465,0.05,0.0481,0.0521,0.0501,0.0518,0.0576,0.0482,0.0523,0.0352,0.0302,0.0163,0.0055,0.0067,-0.0083,-0.0091,-0.0101,-0.0101,-0.026,-0.0352,-0.0104,-0.0104,-0.0104,-0.0104,0,0.0469,0.047,0.0499,0.051,0.052,0.0548,0.06,0.0641,0.0645,0.0729,0.0739,0.0695,0.0634,0.0464,0.0314,0.0165,-0.0057,-0.0014,0.0003,-0.0005,-0.024,-0.0327,-0.0482,-0.0556,-0.0089,-0.0089,-0.0089,0,0.0488,0.0509,0.0541,0.0575,0.0584,0.0634,0.0682,0.0698,0.0764,0.0851,0.0913,0.0883,0.0891,0.0672,0.0389,0.0156,-0.0026,-0.0019,-0.0112,-0.0254,-0.0358,-0.0429,-0.0486,-0.012,-0.012,-0.012,-0.0121,0,0.0532,0.0542,0.0572,0.065,0.0704,0.0778,0.0857,0.0933,0.0996,0.1085,0.1208,0.1228,0.1016,0.0779,0.044,0.0251,-0.0145,-0.0031,-0.0197,-0.0413,-0.0483,-0.0556,-0.0107,-0.0123,-0.0122,-0.0122,-0.0122,-0.0122,0.057,0.0608,0.0663,0.0741,0.0811,0.0934,0.1035,0.1141,0.1288,0.1456,0.1442,0.1509,0.1124,0.0659,0.038,-0.0149,-0.0157,-0.0323,-0.0416,-0.0473,-0.0568,-0.0107,-0.0127,-0.0126,-0.0126,-0.0126,-0.0126,0,0.0638,0.0687,0.076,0.0871,0.0982,0.1001,0.1167,0.1292,0.1502,0.1621,0.173,0.157,0.1098,0.0595,-0.0116,-0.0471,-0.0623,-0.0669,-0.0799,-0.0838,-0.0442,-0.0469,-0.0541,-0.0541,-0.0541,-0.0541,-0.0541,-0.0541,0.0685,0.0774,0.0821,0.1015,0.1102,0.1283,0.1398,0.1564,0.1681,0.1853,0.1878,0.1863,0.1471,0.0187,-0.0655,-0.0842,-0.1104,-0.1162,-0.1271,-0.1033,-0.1009,-0.0986,-0.1035,-0.1224,-0.1225,-0.1638,-0.1642,-0.1645]}],[{"header":{"parameterUnit":"m.s-1","parameterCategory":2,"la1":30.2991,"la2":30.254,"lo1":-89.0895,"lo2":-89.0444,"dy":0.0017,"dx":0.0017,"nx":28,"ny":28,"refTime":"2025-04-28T21:00:00:Z","depth":"2","parameterNumber":2,"parameterNumberName":"U-component_of_CURRENTS"},"data":[0,0,0,0,0,0,0,0,0,0,0,0,0,0,0,0,0,0,0,0,0,0,0,0,0,0,0,0,0,0,0,0,0,0,0,0,0,0,0,0,0,0,0,0,0,0,0,0,0,0,0,0,0,0,0,0,0,0,0.1875,0.1875,0,0.1929,0.193,0.193,0.1958,0.1958,0.1959,0.1959,0.1987,0.1988,0.1988,0,0,0,0,0,0,0,0,0,0,0,0,0,0.1788,0.1789,0.1874,0.1875,0.1876,0.1929,0.193,0.193,0.1958,0.1958,0.1959,0.1959,0.1987,0.1987,0.1988,0,0,0,0,0,0,0,0,0,0,0,0,0,0.183,0.179,0.1874,0.1898,0.1901,0.1929,0.193,0.193,0.1958,0.1958,0.1959,0.1959,0.1987,0.1987,0.1988,0.1986,0,0,0.1991,0.1991,0,0,0,0,0,0,0,0,0.1828,0.1833,0.1894,0.1897,0.19,0.1939,0.191,0.1948,0.1958,0.1934,0.1959,0.1959,0.197,0.1972,0.1979,0.1988,0.1989,0.1991,0.1991,0.1992,0.1992,0,0,0,0,0,0,0,0.1825,0.1831,0.1894,0.1895,0.1898,0.1904,0.191,0.1917,0.1947,0.1936,0.1939,0.1948,0.1971,0.1978,0.1979,0.1989,0.1991,0.1991,0.1992,0.1992,0.2054,0.2055,0,0,0,0,0,0,0.1823,0.1828,0.1892,0.1896,0.1866,0.1906,0.1912,0.1924,0.1948,0.1952,0.1948,0.1949,0.1976,0.1979,0.1981,0.2028,0.1992,0.1992,0.1993,0.2053,0.2054,0.2056,0,0,0,0,0,0,0.1821,0.1828,0.189,0.1865,0.1873,0.1907,0.192,0.1925,0.1945,0.1957,0.1961,0.1964,0.1977,0.1979,0.2004,0.2027,0.1993,0.1993,0.2052,0.2053,0.2055,0.2091,0,0,0,0,0,0,0.1818,0.1827,0.1835,0.1865,0.1875,0.1917,0.192,0.1926,0.195,0.1953,0.1972,0.1974,0.1977,0.2003,0.2005,0.2027,0.1994,0.205,0.2052,0.2055,0.2088,0.2093,0.2098,0,0,0,0,0,0.1815,0.1828,0.1835,0.1843,0.1885,0.1918,0.1923,0.1946,0.1951,0.1964,0.1979,0.1974,0.2018,0.2004,0.2006,0.203,0.2049,0.2052,0.2054,0.2086,0.2092,0.2098,0,0,0,0,0,0,0.1798,0.1833,0.1842,0.1866,0.1893,0.1923,0.1938,0.1952,0.1974,0.1978,0.1985,0.1989,0.2021,0.202,0.2004,0.2055,0.2034,0.2037,0.2057,0.2064,0.2068,0.2073,0.1995,0,0,0,0,0,0.1797,0.1815,0.1849,0.1869,0.1883,0.191,0.1927,0.1944,0.1968,0.1978,0.1992,0.2009,0.2031,0.2043,0.2057,0.208,0.2106,0.2099,0.2104,0.2108,0.2114,0.217,0.2181,0.2064,0.2064,0.2064,0,0,0.1795,0.1818,0.1828,0.1866,0.1887,0.1914,0.1921,0.1952,0.1977,0.1977,0.2011,0.2025,0.2041,0.2073,0.2087,0.2077,0.216,0.2111,0.2115,0.2118,0.2174,0.2186,0.2196,0.2066,0.2066,0.2065,0,0,0.18,0.1822,0.1838,0.1864,0.1902,0.1922,0.1933,0.1969,0.1989,0.2022,0.2033,0.2063,0.2088,0.2111,0.2123,0.2163,0.2183,0.2169,0.2199,0.2254,0.2264,0.2274,0.2341,0.2356,0.2173,0.2173,0.2173,0,0.1796,0.1825,0.1848,0.1874,0.19,0.1927,0.1956,0.1979,0.2019,0.2042,0.2038,0.2102,0.2109,0.2161,0.2176,0.2175,0.2215,0.2173,0.2261,0.2271,0.228,0.2346,0.2362,0.2175,0.2174,0.2174,0.2174,0,0.1815,0.1842,0.1856,0.1897,0.1927,0.1957,0.1996,0.2024,0.2048,0.2077,0.2133,0.2151,0.2193,0.22,0.2199,0.2267,0.228,0.2261,0.2246,0.2294,0.2361,0.2377,0.2178,0.2177,0.2176,0.2176,0,0,0.1794,0.1856,0.1862,0.1888,0.1945,0.1972,0.2017,0.207,0.2112,0.2144,0.2206,0.2236,0.2255,0.2271,0.2281,0.2321,0.2417,0.2319,0.2321,0.2386,0.2562,0.2519,0.2532,0.2418,0.242,0.2422,0.2591,0,0.1802,0.1849,0.1884,0.1935,0.1964,0.2011,0.2055,0.2107,0.2152,0.2215,0.2249,0.2307,0.2281,0.2315,0.2352,0.2407,0.2458,0.2374,0.2505,0.2509,0.2465,0.2548,0.2357,0.2486,0.2606,0.2609,0.2611,0,0.1806,0.184,0.1887,0.1963,0.1982,0.2017,0.2102,0.215,0.2237,0.2276,0.2338,0.2375,0.2453,0.2415,0.2538,0.2491,0.2531,0.2561,0.2568,0.2524,0.2496,0.2454,0.2511,0.2637,0.2635,0.2633,0.2632,0,0.1776,0.1844,0.1883,0.1907,0.1991,0.2027,0.2079,0.2165,0.2223,0.2327,0.239,0.247,0.2543,0.2594,0.2658,0.2615,0.2793,0.2742,0.2743,0.2742,0.2601,0.2582,0.2827,0.2827,0.2826,0.2826,0.2825,0,0.1774,0.1802,0.187,0.1893,0.1946,0.2018,0.209,0.2153,0.2264,0.2344,0.2424,0.2504,0.2593,0.2696,0.2717,0.2799,0.285,0.2775,0.2787,0.261,0.259,0.2724,0.2709,0.2832,0.2831,0.283,0.2828,0,0.1735,0.1781,0.1821,0.1904,0.193,0.197,0.2085,0.2143,0.226,0.2374,0.2418,0.2575,0.2707,0.2792,0.291,0.2894,0.2957,0.2965,0.2759,0.2743,0.2855,0.284,0.2992,0.2992,0.2992,0.2992,0.2992,0,0.1717,0.1733,0.1806,0.183,0.1868,0.1937,0.1987,0.2114,0.2186,0.2401,0.2456,0.264,0.2731,0.2912,0.2932,0.3001,0.3008,0.2848,0.271,0.2878,0.2875,0.286,0.2847,0.2556,0.2552,0.2549,0.2547,0,0.1677,0.1701,0.174,0.1784,0.1831,0.1891,0.1981,0.2034,0.2198,0.2309,0.2467,0.2566,0.2752,0.2746,0.2853,0.2845,0.2816,0.279,0.3051,0.2528,0.2475,0.2469,0.2468,0.2521,0.2523,0.2525,0.2527,0.2528,0.1638,0.1647,0.1695,0.1742,0.1792,0.1845,0.1871,0.1973,0.2078,0.222,0.2363,0.2452,0.2546,0.2599,0.2569,0.2561,0.2724,0.2607,0.2612,0.2622,0.2526,0.2474,0.2504,0.2506,0.2508,0.251,0.2512,0,0.1584,0.1614,0.1652,0.1704,0.1734,0.1789,0.1866,0.1873,0.1948,0.2092,0.2193,0.2104,0.2156,0.2242,0.2204,0.2238,0.2172,0.2144,0.2038,0.2069,0.2095,0.1966,0.1799,0.1796,0.1793,0.1791,0,0,0.1561,0.1572,0.1603,0.1637,0.1677,0.17,0.1725,0.1726,0.1796,0.1816,0.1859,0.2041,0.2187,0.1943,0.1953,0.1869,0.1934,0.1802,0.2388,0.2295,0.2317,0.2398,0.2241,0,0,0,0,0]},{"header":{"parameterUnit":"m.s-1","parameterCategory":2,"la1":30.2991,"la2":30.254,"lo1":-89.0895,"lo2":-89.0444,"dy":0.0017,"dx":0.0017,"nx":28,"ny":28,"refTime":"2025-04-28T21:00:00:Z","depth":"2","parameterNumber":3,"parameterNumberName":"V-component_of_CURRENTS"},"data":[0,0,0,0,0,0,0,0,0,0,0,0,0,0,0,0,0,0,0,0,0,0,0,0,0,0,0,0,0,0,0,0,0,0,0,0,0,0,0,0,0,0,0,0,0,0,0,0,0,0,0,0,0,0,0,0,0,0,-0.015,-0.0151,0,-0.0203,-0.0204,-0.0204,-0.0234,-0.0234,-0.0234,-0.0234,-0.0317,-0.0319,-0.0322,0,0,0,0,0,0,0,0,0,0,0,0,0,-0.0106,-0.0106,-0.015,-0.0151,-0.0151,-0.0203,-0.0204,-0.0205,-0.0234,-0.0234,-0.0234,-0.0234,-0.0317,-0.0319,-0.0322,0,0,0,0,0,0,0,0,0,0,0,0,0,-0.0139,-0.0107,-0.015,-0.0172,-0.0174,-0.0203,-0.0204,-0.0205,-0.0234,-0.0234,-0.0234,-0.0234,-0.0316,-0.0319,-0.0322,-0.0342,0,0,-0.0332,-0.0334,0,0,0,0,0,0,0,0,-0.0137,-0.0141,-0.0168,-0.017,-0.0173,-0.0211,-0.0219,-0.0252,-0.0234,-0.0212,-0.0234,-0.0234,-0.0284,-0.029,-0.03,-0.0346,-0.0349,-0.0333,-0.0335,-0.0336,-0.0337,0,0,0,0,0,0,0,-0.0135,-0.0139,-0.0172,-0.0169,-0.0172,-0.0189,-0.0194,-0.0225,-0.0248,-0.0214,-0.0216,-0.0221,-0.0286,-0.0297,-0.0303,-0.0351,-0.0332,-0.0335,-0.0337,-0.0339,-0.0404,-0.0404,0,0,0,0,0,0,-0.0125,-0.0136,-0.017,-0.0173,-0.0154,-0.019,-0.0195,-0.0199,-0.0247,-0.0254,-0.022,-0.0222,-0.0291,-0.0299,-0.0306,-0.0314,-0.0336,-0.0339,-0.0341,-0.0404,-0.0404,-0.0404,0,0,0,0,0,0,-0.0124,-0.0128,-0.0168,-0.0156,-0.0162,-0.019,-0.0195,-0.02,-0.0206,-0.0252,-0.026,-0.0219,-0.0292,-0.0301,-0.0324,-0.0318,-0.0341,-0.0344,-0.0405,-0.0404,-0.0404,-0.0342,0,0,0,0,0,0,-0.0123,-0.0127,-0.0124,-0.0155,-0.0162,-0.0174,-0.0195,-0.0201,-0.0209,-0.0211,-0.0254,-0.0262,-0.0293,-0.0319,-0.0327,-0.0323,-0.0346,-0.0405,-0.0404,-0.0404,-0.0345,-0.034,-0.0336,0,0,0,0,0,-0.0121,-0.0113,-0.0123,-0.0127,-0.0158,-0.0173,-0.0178,-0.02,-0.0208,-0.0205,-0.0235,-0.026,-0.0322,-0.0321,-0.0331,-0.0328,-0.0405,-0.0405,-0.0404,-0.0347,-0.0341,-0.0336,0,0,0,0,0,0,-0.0088,-0.0116,-0.0128,-0.0128,-0.0145,-0.0178,-0.0176,-0.0193,-0.0214,-0.0214,-0.0258,-0.0268,-0.0287,-0.0316,-0.0313,-0.0346,-0.0368,-0.0369,-0.0321,-0.0316,-0.0311,-0.0302,-0.0349,0,0,0,0,0,-0.008,-0.0084,-0.0112,-0.0111,-0.0116,-0.0145,-0.0153,-0.0167,-0.0192,-0.02,-0.023,-0.0264,-0.0294,-0.0309,-0.034,-0.0357,-0.038,-0.0362,-0.0357,-0.0353,-0.0352,-0.0383,-0.0381,-0.0402,-0.0402,-0.0402,0,0,-0.0068,-0.0083,-0.0085,-0.0104,-0.0119,-0.0121,-0.0149,-0.0155,-0.0157,-0.0207,-0.0216,-0.025,-0.0296,-0.0314,-0.0325,-0.0336,-0.0356,-0.0353,-0.0349,-0.035,-0.0382,-0.038,-0.0379,-0.0402,-0.0402,-0.0402,0,0,-0.0043,-0.0056,-0.0051,-0.006,-0.0078,-0.0096,-0.0094,-0.012,-0.0131,-0.0146,-0.0184,-0.0211,-0.0253,-0.0285,-0.0308,-0.0299,-0.0332,-0.0307,-0.0278,-0.0307,-0.0305,-0.0304,-0.0313,-0.0314,-0.0304,-0.0304,-0.0304,0,-0.0025,-0.0025,-0.005,-0.0045,-0.0046,-0.0081,-0.007,-0.0088,-0.0119,-0.0126,-0.0138,-0.0202,-0.024,-0.0271,-0.0269,-0.0289,-0.0304,-0.0292,-0.03,-0.03,-0.03,-0.031,-0.0311,-0.0301,-0.0301,-0.0302,-0.0302,0,0.0001,0.0004,0.001,0.0002,-0.0002,0.0003,-0.0024,-0.003,-0.0048,-0.0071,-0.0097,-0.0149,-0.0185,-0.0204,-0.0236,-0.0256,-0.0265,-0.029,-0.0311,-0.0294,-0.0305,-0.0307,-0.0297,-0.0298,-0.0299,-0.03,0,0,0.0035,0.0029,0.0032,0.0042,0.0026,0.0027,0.0024,0.001,0.0016,-0.0024,-0.002,-0.0089,-0.0115,-0.0143,-0.0187,-0.0219,-0.0231,-0.025,-0.0253,-0.0252,-0.0279,-0.0302,-0.0307,-0.0257,-0.0257,-0.0258,-0.0279,0,0.0064,0.009,0.0074,0.01,0.0113,0.0087,0.0091,0.0074,0.0055,0.0051,-0.0011,-0.0027,-0.0093,-0.01,-0.0146,-0.0204,-0.0237,-0.0222,-0.0301,-0.0303,-0.0321,-0.0311,-0.0287,-0.0306,-0.0282,-0.0282,-0.0283,0,0.0094,0.0108,0.014,0.0156,0.016,0.0169,0.0177,0.0178,0.0153,0.014,0.0103,0.006,0.0009,-0.0044,-0.0147,-0.0131,-0.0202,-0.0255,-0.0258,-0.0305,-0.0331,-0.0324,-0.0312,-0.0287,-0.0287,-0.0286,-0.0286,0,0.0135,0.0155,0.0186,0.0191,0.02,0.0212,0.022,0.0206,0.0227,0.0204,0.0225,0.0137,0.0129,0.0015,-0.0104,-0.012,-0.0209,-0.0244,-0.0334,-0.0335,-0.0345,-0.0347,-0.0324,-0.0324,-0.0324,-0.0324,-0.0324,0,0.0174,0.02,0.021,0.0229,0.0274,0.0265,0.0311,0.0302,0.0319,0.0363,0.0282,0.0298,0.0143,0.0071,-0.0064,-0.0196,-0.018,-0.0326,-0.0347,-0.0321,-0.0321,-0.0335,-0.0336,-0.0324,-0.0324,-0.0324,-0.0324,0,0.0215,0.022,0.0257,0.0279,0.0294,0.0329,0.0385,0.0423,0.0429,0.0491,0.0495,0.0436,0.034,0.0177,0.0012,-0.012,-0.0262,-0.0319,-0.0269,-0.0285,-0.0377,-0.0375,-0.0414,-0.0415,-0.0416,-0.0417,-0.0418,0,0.0236,0.0259,0.0299,0.0335,0.035,0.0405,0.0452,0.0474,0.053,0.0576,0.062,0.0553,0.0507,0.026,0.0012,-0.0218,-0.0255,-0.0345,-0.0393,-0.0372,-0.0389,-0.0385,-0.0381,-0.0368,-0.0368,-0.0369,-0.0369,0,0.0281,0.0292,0.0327,0.0397,0.0452,0.0522,0.0596,0.0658,0.0706,0.076,0.0813,0.078,0.055,0.0319,0.0003,-0.0164,-0.0312,-0.0357,-0.0344,-0.0356,-0.0333,-0.0348,-0.0345,-0.037,-0.037,-0.037,-0.037,-0.037,0.0314,0.0346,0.0394,0.0468,0.054,0.0639,0.0709,0.0795,0.0895,0.0981,0.0942,0.0914,0.0645,0.0244,-0.0035,-0.0319,-0.0325,-0.0424,-0.0422,-0.042,-0.0417,-0.0399,-0.0446,-0.0446,-0.0446,-0.0447,-0.0447,0,0.0344,0.0393,0.0465,0.0555,0.0643,0.0678,0.0809,0.0877,0.1001,0.1075,0.1098,0.0861,0.06,0.0309,-0.0113,-0.0384,-0.0407,-0.046,-0.0422,-0.0419,-0.0417,-0.0413,-0.0441,-0.0442,-0.0443,-0.0443,0,0,0.0367,0.0433,0.0476,0.0628,0.0704,0.0842,0.0922,0.1009,0.1089,0.1145,0.1148,0.1068,0.0717,0.0419,0.005,-0.018,-0.0237,-0.0234,-0.0213,-0.0122,-0.0116,-0.0377,-0.0366,0,0,0,0,0]}],[{"header":{"parameterUnit":"m.s-1","parameterCategory":2,"la1":30.2991,"la2":30.254,"lo1":-89.0895,"lo2":-89.0444,"dy":0.0017,"dx":0.0017,"nx":28,"ny":28,"refTime":"2025-04-28T21:00:00:Z","depth":"4","parameterNumber":2,"parameterNumberName":"U-component_of_CURRENTS"},"data":[0,0,0,0,0,0,0,0,0,0,0,0,0,0,0,0,0,0,0,0,0,0,0,0,0,0,0,0,0,0,0,0,0,0,0,0,0,0,0,0,0,0,0,0,0,0,0,0,0,0,0,0,0,0,0,0,0,0,0.1119,0.112,0,0.1176,0.1177,0.1177,0.1224,0.1225,0.1225,0.1226,0.1272,0.1273,0.1273,0,0,0,0,0,0,0,0,0,0,0,0,0,0.1053,0.1054,0.1119,0.112,0.1121,0.1176,0.1177,0.1177,0.1224,0.1225,0.1225,0.1226,0.1272,0.1273,0.1273,0,0,0,0,0,0,0,0,0,0,0,0,0,0.1092,0.1054,0.1119,0.1151,0.1155,0.1176,0.1177,0.1177,0.1224,0.1225,0.1225,0.1226,0.1271,0.1272,0.1274,0.1262,0,0,0.1277,0.1277,0,0,0,0,0,0,0,0,0.109,0.1094,0.1146,0.1149,0.1153,0.1195,0.117,0.1206,0.1224,0.1197,0.1226,0.1227,0.1245,0.1248,0.1256,0.1264,0.1266,0.1277,0.1277,0.1278,0.1278,0,0,0,0,0,0,0,0.1087,0.1092,0.1141,0.1147,0.1151,0.1164,0.117,0.1177,0.1214,0.1199,0.1203,0.121,0.1247,0.1255,0.1257,0.1267,0.1277,0.1278,0.1278,0.1279,0.1335,0.1336,0,0,0,0,0,0,0.1081,0.109,0.1139,0.1142,0.1124,0.1164,0.1172,0.118,0.1215,0.1221,0.121,0.1212,0.1253,0.1256,0.1259,0.1317,0.1278,0.1279,0.1279,0.1334,0.1335,0.1336,0,0,0,0,0,0,0.1079,0.1085,0.1137,0.1118,0.1126,0.1165,0.1173,0.118,0.1211,0.1223,0.1229,0.1236,0.1253,0.1258,0.129,0.1317,0.1279,0.128,0.1333,0.1335,0.1336,0.1389,0,0,0,0,0,0,0.1077,0.1084,0.1099,0.1118,0.1127,0.1163,0.1173,0.1181,0.1213,0.1218,0.1247,0.1251,0.1254,0.1289,0.1291,0.1317,0.1281,0.1332,0.1334,0.1335,0.1386,0.1392,0.1397,0,0,0,0,0,0.1075,0.1088,0.11,0.1106,0.1143,0.1164,0.117,0.1199,0.1214,0.123,0.1254,0.1251,0.1301,0.129,0.1293,0.132,0.1331,0.1333,0.1335,0.1384,0.1391,0.1397,0,0,0,0,0,0,0.1063,0.1094,0.1108,0.1129,0.1152,0.1173,0.1195,0.121,0.1241,0.1254,0.1263,0.1269,0.1307,0.1303,0.1291,0.134,0.1315,0.1318,0.1351,0.1358,0.1363,0.137,0.1282,0,0,0,0,0,0.1067,0.1091,0.1114,0.1135,0.1148,0.1174,0.1192,0.1211,0.1235,0.1252,0.1272,0.1293,0.1312,0.1328,0.1341,0.1367,0.1376,0.1385,0.139,0.1395,0.1403,0.1444,0.1455,0.1343,0.1343,0.1343,0,0,0.1069,0.109,0.1104,0.1135,0.1158,0.1179,0.1188,0.122,0.1244,0.125,0.1297,0.1314,0.1323,0.1358,0.1374,0.1362,0.1432,0.1397,0.1402,0.1407,0.1448,0.1459,0.1468,0.1344,0.1344,0.1344,0,0,0.1078,0.1103,0.1126,0.1148,0.1186,0.1198,0.1211,0.1245,0.1271,0.131,0.1323,0.1358,0.1385,0.1402,0.1411,0.1451,0.1458,0.1457,0.1495,0.1536,0.1546,0.1554,0.1582,0.1593,0.1461,0.1461,0.1461,0,0.1081,0.1109,0.1135,0.1161,0.118,0.1208,0.123,0.1257,0.13,0.1326,0.1333,0.1399,0.1405,0.145,0.1469,0.1465,0.1488,0.1471,0.1544,0.1553,0.1561,0.1587,0.1598,0.1464,0.1464,0.1464,0.1463,0,0.11,0.1131,0.1146,0.1187,0.121,0.1235,0.1268,0.1306,0.1339,0.1366,0.1429,0.1451,0.1493,0.1499,0.1499,0.1561,0.156,0.1547,0.153,0.1576,0.16,0.1611,0.1468,0.1467,0.1466,0.1466,0,0,0.1079,0.1146,0.1153,0.1178,0.1227,0.1244,0.1293,0.1339,0.1383,0.1431,0.149,0.1529,0.1557,0.1569,0.1581,0.1616,0.169,0.1615,0.1615,0.1646,0.1786,0.1699,0.1702,0.1701,0.1704,0.1705,0.1781,0,0.1086,0.1134,0.1165,0.1209,0.1233,0.1277,0.1321,0.1372,0.142,0.1486,0.1527,0.1588,0.1578,0.162,0.1653,0.169,0.1722,0.1671,0.1733,0.1735,0.1656,0.1713,0.1712,0.1789,0.1791,0.1793,0.1794,0,0.1088,0.1122,0.1166,0.123,0.1246,0.1279,0.1357,0.1398,0.1489,0.1538,0.1608,0.1649,0.1725,0.1704,0.1793,0.177,0.1784,0.1799,0.1802,0.1709,0.1668,0.1733,0.1814,0.1812,0.1811,0.181,0.1808,0,0.1052,0.1119,0.1154,0.1175,0.1251,0.129,0.1334,0.142,0.1469,0.1584,0.1644,0.1729,0.1795,0.1835,0.1877,0.1853,0.1964,0.1926,0.1854,0.1848,0.188,0.1869,0.1976,0.1976,0.1976,0.1976,0.1976,0,0.1033,0.1064,0.1148,0.1165,0.1221,0.1281,0.1347,0.1416,0.1516,0.1582,0.1673,0.1744,0.1837,0.1907,0.1917,0.1931,0.2,0.1875,0.1868,0.1899,0.189,0.1887,0.1876,0.1979,0.1978,0.1977,0.1977,0,0.0985,0.1041,0.1083,0.117,0.1206,0.1244,0.1348,0.1395,0.1508,0.1602,0.1651,0.1789,0.1889,0.1954,0.2034,0.198,0.1999,0.1977,0.2022,0.2015,0.1842,0.1833,0.1903,0.1901,0.1899,0.1897,0.1896,0,0.0964,0.0985,0.1073,0.1107,0.115,0.1221,0.1272,0.1384,0.1435,0.1613,0.1652,0.1802,0.1879,0.1922,0.1994,0.2022,0.1989,0.1981,0.189,0.1851,0.1839,0.1832,0.1825,0.1893,0.1892,0.1892,0.1891,0,0.0915,0.0953,0.0987,0.1057,0.1113,0.1165,0.1249,0.1279,0.1412,0.153,0.1629,0.1698,0.1804,0.187,0.1915,0.192,0.1981,0.196,0.1962,0.1877,0.184,0.1827,0.1823,0.1884,0.1885,0.1886,0.1886,0,0.0878,0.0887,0.094,0.0995,0.1059,0.1091,0.1142,0.1215,0.1282,0.1474,0.1508,0.1661,0.179,0.1819,0.1859,0.1872,0.183,0.1754,0.1766,0.1775,0.1699,0.1631,0.1619,0,0,0,0,0,0.0835,0.0841,0.088,0.0923,0.098,0.1021,0.1121,0.1174,0.1305,0.134,0.142,0.1514,0.1603,0.1682,0.1668,0.1796,0.1829,0.1773,0.1745,0.1847,0.1855,0.1777,0,0,0,0,0,0,0.0803,0.0832,0.0848,0.0852,0.0871,0.0922,0.0979,0.1072,0.1097,0.1245,0.13,0.1422,0.1526,0.1594,0.1638,0.1662,0.1614,0.1868,0.1864,0.1842,0.185,0.1856,0.1779,0,0,0,0,0]},{"header":{"parameterUnit":"m.s-1","parameterCategory":2,"la1":30.2991,"la2":30.254,"lo1":-89.0895,"lo2":-89.0444,"dy":0.0017,"dx":0.0017,"nx":28,"ny":28,"refTime":"2025-04-28T21:00:00:Z","depth":"4","parameterNumber":3,"parameterNumberName":"V-component_of_CURRENTS"},"data":[0,0,0,0,0,0,0,0,0,0,0,0,0,0,0,0,0,0,0,0,0,0,0,0,0,0,0,0,0,0,0,0,0,0,0,0,0,0,0,0,0,0,0,0,0,0,0,0,0,0,0,0,0,0,0,0,0,0,-0.0214,-0.0214,0,-0.025,-0.0251,-0.0251,-0.0281,-0.0282,-0.0282,-0.0282,-0.0329,-0.033,-0.0331,0,0,0,0,0,0,0,0,0,0,0,0,0,-0.0173,-0.0174,-0.0214,-0.0214,-0.0215,-0.025,-0.0251,-0.0251,-0.0281,-0.0282,-0.0282,-0.0283,-0.0329,-0.033,-0.0331,0,0,0,0,0,0,0,0,0,0,0,0,0,-0.0198,-0.0174,-0.0214,-0.0234,-0.0237,-0.025,-0.0251,-0.0251,-0.0281,-0.0282,-0.0282,-0.0283,-0.0328,-0.033,-0.0331,-0.0328,0,0,-0.0335,-0.0336,0,0,0,0,0,0,0,0,-0.0196,-0.0199,-0.0231,-0.0233,-0.0236,-0.0262,-0.0253,-0.0278,-0.0281,-0.0264,-0.0282,-0.0283,-0.0307,-0.0311,-0.0315,-0.0331,-0.0333,-0.0335,-0.0336,-0.0337,-0.0337,0,0,0,0,0,0,0,-0.0195,-0.0198,-0.0228,-0.0231,-0.0234,-0.0243,-0.0247,-0.0258,-0.0282,-0.0265,-0.0268,-0.0272,-0.0309,-0.0314,-0.0317,-0.0333,-0.0335,-0.0336,-0.0337,-0.0338,-0.0364,-0.0364,0,0,0,0,0,0,-0.019,-0.0196,-0.0227,-0.0229,-0.0217,-0.0243,-0.0248,-0.0253,-0.0282,-0.0287,-0.0272,-0.0274,-0.0311,-0.0315,-0.0319,-0.0316,-0.0337,-0.0338,-0.0339,-0.0364,-0.0364,-0.0364,0,0,0,0,0,0,-0.0189,-0.0193,-0.0225,-0.0214,-0.0218,-0.0243,-0.0249,-0.0253,-0.0263,-0.0287,-0.0292,-0.0278,-0.0312,-0.0317,-0.033,-0.0318,-0.0339,-0.034,-0.0365,-0.0364,-0.0364,-0.0312,0,0,0,0,0,0,-0.0188,-0.0192,-0.0195,-0.0213,-0.0219,-0.023,-0.0248,-0.0253,-0.0265,-0.0268,-0.0293,-0.0298,-0.0313,-0.0328,-0.0332,-0.032,-0.0341,-0.0365,-0.0364,-0.0364,-0.0314,-0.031,-0.0307,0,0,0,0,0,-0.0186,-0.0187,-0.0195,-0.0199,-0.0222,-0.023,-0.0233,-0.0253,-0.0265,-0.0264,-0.0284,-0.0297,-0.033,-0.0329,-0.0333,-0.0322,-0.0365,-0.0364,-0.0364,-0.0315,-0.0311,-0.0307,0,0,0,0,0,0,-0.0172,-0.019,-0.02,-0.0207,-0.0217,-0.0235,-0.0239,-0.0251,-0.0267,-0.0273,-0.0295,-0.0301,-0.031,-0.0325,-0.0324,-0.0331,-0.0349,-0.035,-0.0311,-0.0307,-0.0303,-0.0285,-0.0342,0,0,0,0,0,-0.017,-0.0174,-0.0191,-0.0196,-0.0201,-0.022,-0.0227,-0.0239,-0.0254,-0.0262,-0.0279,-0.0298,-0.031,-0.0316,-0.0332,-0.0333,-0.0358,-0.033,-0.0327,-0.0323,-0.0313,-0.0342,-0.034,-0.0363,-0.0363,-0.0363,0,0,-0.0167,-0.0177,-0.018,-0.0193,-0.0204,-0.0199,-0.0225,-0.0234,-0.0226,-0.0264,-0.0263,-0.0288,-0.031,-0.0312,-0.0317,-0.0323,-0.0332,-0.0323,-0.032,-0.0311,-0.0342,-0.0339,-0.0337,-0.0363,-0.0363,-0.0363,0,0,-0.0153,-0.017,-0.0165,-0.017,-0.0183,-0.019,-0.0191,-0.0208,-0.0214,-0.0219,-0.0243,-0.0258,-0.0279,-0.0286,-0.0294,-0.028,-0.0315,-0.0291,-0.0253,-0.0281,-0.0279,-0.0278,-0.0315,-0.0317,-0.0285,-0.0285,-0.0285,0,-0.0147,-0.0143,-0.0164,-0.0157,-0.0154,-0.0181,-0.0167,-0.0174,-0.0192,-0.019,-0.0214,-0.0241,-0.0263,-0.0256,-0.0253,-0.027,-0.0299,-0.0264,-0.0276,-0.0275,-0.0274,-0.0313,-0.0316,-0.0282,-0.0283,-0.0283,-0.0283,0,-0.0126,-0.0122,-0.0119,-0.0115,-0.0114,-0.0109,-0.0116,-0.0116,-0.0131,-0.0141,-0.0148,-0.0183,-0.0197,-0.0208,-0.0226,-0.0226,-0.0254,-0.027,-0.0283,-0.0268,-0.031,-0.0315,-0.0279,-0.028,-0.028,-0.0281,0,0,-0.0113,-0.0105,-0.0103,-0.0087,-0.009,-0.0082,-0.0067,-0.0057,-0.0046,-0.0073,-0.0065,-0.009,-0.0118,-0.0129,-0.0158,-0.018,-0.0207,-0.022,-0.0222,-0.025,-0.0282,-0.0275,-0.028,-0.023,-0.023,-0.0231,-0.0316,0,-0.0087,-0.0058,-0.0061,-0.0025,-0.0008,-0.0016,0.0005,0.0008,-0.0004,-0.0006,-0.0039,-0.0051,-0.0085,-0.0099,-0.0124,-0.019,-0.0215,-0.0183,-0.0298,-0.0301,-0.0291,-0.0283,-0.0231,-0.032,-0.0321,-0.0321,-0.0322,0,-0.0062,-0.0043,-0.0006,0.003,0.0037,0.0054,0.0082,0.0095,0.0087,0.0074,0.0054,0.0017,-0.0014,-0.0054,-0.0144,-0.0126,-0.0194,-0.0247,-0.0253,-0.0263,-0.0301,-0.0337,-0.033,-0.0329,-0.0329,-0.0328,-0.0328,0,-0.0035,-0.0,0.0034,0.0044,0.0074,0.0095,0.0111,0.0117,0.0134,0.0116,0.0114,0.0067,0.0034,-0.0047,-0.0154,-0.0156,-0.0266,-0.0285,-0.034,-0.0342,-0.0347,-0.0347,-0.0345,-0.0345,-0.0345,-0.0344,-0.0344,0,-0.0006,0.0024,0.005,0.0067,0.0119,0.0126,0.0167,0.0175,0.018,0.0202,0.0152,0.0148,0.0032,-0.0044,-0.0142,-0.0253,-0.026,-0.0328,-0.0357,-0.0325,-0.0322,-0.0351,-0.035,-0.0348,-0.0347,-0.0346,-0.0346,0,0.0015,0.0029,0.0074,0.0112,0.0131,0.0164,0.0207,0.0232,0.0231,0.0254,0.0251,0.0196,0.0099,-0.002,-0.0164,-0.0234,-0.0344,-0.0383,-0.0342,-0.0369,-0.0406,-0.0402,-0.0449,-0.045,-0.045,-0.045,-0.045,0,0.0029,0.0051,0.0103,0.0134,0.0152,0.02,0.0235,0.0255,0.0282,0.0289,0.0302,0.0223,0.0172,-0.0016,-0.0153,-0.0337,-0.036,-0.0421,-0.0403,-0.039,-0.0414,-0.041,-0.0406,-0.0451,-0.0451,-0.0451,-0.0451,0,0.0057,0.0068,0.0102,0.0159,0.0203,0.0258,0.0306,0.0333,0.0358,0.036,0.0355,0.0266,0.0156,0.0002,-0.0146,-0.0276,-0.0381,-0.0424,-0.0425,-0.0408,-0.0393,-0.0415,-0.0411,-0.0452,-0.0452,-0.0452,-0.0452,0,0.0072,0.0097,0.0131,0.0186,0.024,0.0295,0.0325,0.0365,0.0393,0.0406,0.0401,0.029,0.0222,0.0032,-0.0101,-0.0231,-0.0262,-0.0297,-0.0305,-0.0306,-0.0236,-0.0195,-0.021,0,0,0,0,0,0.008,0.0104,0.0157,0.0211,0.0263,0.0294,0.0365,0.039,0.0419,0.043,0.0422,0.0328,0.0146,0.0064,-0.0063,-0.0128,-0.0304,-0.0283,-0.0354,-0.0457,-0.0456,-0.0398,0,0,0,0,0,0,0.0082,0.0123,0.0152,0.0217,0.0253,0.0314,0.0358,0.0385,0.0398,0.0413,0.0321,0.029,0.0108,0.0211,-0.0071,-0.0111,-0.0173,-0.0367,-0.037,-0.0458,-0.0457,-0.0456,-0.0395,0,0,0,0,0]}]]